Content
SEND FEEDBACK

Daily
Averages
Monthly
Summary
United States of America

FAYETTEVILLE, TENNESSEE


Home > North America > United States > Tennessee
Elevation: 700 feet     Latitude: 35 10N     Longitude: 086 33W

WEATHER
 
SELECT A DAY
Number of Records: 309,325;   Date Range: 4/22/02 - 12/16/14
 
SHARE

PRINT THIS DATA

[ ← Previous Day ]
WEATHER ALMANAC - NOVEMBER 9, 2013
[ Next Day → ]
[ °C ]   °F
Weather ElementAverageHighLow
Temperature45.5 °F59 °F (2:35 pm)32 °F (5:35 am)
Dewpoint33.2 °F41 °F (9:15 pm)28.4 °F (8:15 am)
Humidity66.1 %93 % (2:35 am)31 % (3:15 pm)
Barometer30.28 in30.33 in (9:15 am)30.23 in (1:55 pm)
Wind Speed0.1 mph3.5 mph (2:35 pm)
Weather ElementAverage
Visibility10 mi
Wind DirectionN (5.4 °)

Weather ElementTotal
Precipitation---
Heating Degree Days19.5 (Base 65)
Averaged from 70 records on November 9, 2013
WEATHER CONDITIONS BREAKOUT
WIND DIRECTION BREAKOUT
WEATHER BY HOUR - NOVEMBER 9, 2013
[ °C ]   °F
Local TimeTemperatureDewpointHumidityBarometerVisibilityWind DirectionWind SpeedGust SpeedPrecipitationEventsConditions
12:35 AM37.4 °F32.0 °F81 %30.26 in10.0 miCalmClear
12:55 AM35.6 °F32.0 °F87 %30.27 in10.0 miCalmClear
1:15 AM35.6 °F32.0 °F87 %30.27 in10.0 miCalmClear
1:35 AM35.6 °F32.0 °F87 %30.27 in10.0 miCalmClear
1:55 AM35.6 °F32.0 °F87 %30.27 in10.0 miCalmClear
2:15 AM35.6 °F32.0 °F87 %30.26 in10.0 miCalmClear
2:35 AM33.8 °F32.0 °F93 %30.27 in10.0 miCalmClear
2:55 AM33.8 °F32.0 °F93 %30.27 in10.0 miCalmClear
3:15 AM33.8 °F32.0 °F93 %30.27 in10.0 miCalmClear
3:35 AM33.8 °F32.0 °F93 %30.26 in10.0 miCalmClear
3:55 AM33.8 °F30.2 °F87 %30.26 in10.0 miCalmClear
4:15 AM33.8 °F32.0 °F93 %30.26 in10.0 miCalmClear
4:35 AM33.8 °F30.2 °F87 %30.27 in10.0 miCalmClear
4:55 AM33.8 °F32.0 °F93 %30.27 in10.0 miCalmClear
5:15 AM33.8 °F30.2 °F87 %30.27 in10.0 miCalmClear
5:35 AM32.0 °F30.2 °F93 %30.28 in10.0 miCalmClear
5:55 AM33.8 °F32.0 °F93 %30.28 in10.0 miCalmClear
6:15 AM32.0 °F30.2 °F93 %30.29 in10.0 miCalmClear
6:35 AM32.0 °F30.2 °F93 %30.29 in10.0 miCalmClear
6:55 AM33.8 °F32.0 °F93 %30.29 in10.0 miCalmClear
7:15 AM33.8 °F30.2 °F87 %30.30 in10.0 miCalmClear
7:35 AM35.6 °F32.0 °F87 %30.31 in10.0 miCalmClear
7:55 AM42.8 °F30.2 °F61 %30.31 in10.0 miCalmClear
8:15 AM44.6 °F28.4 °F53 %30.32 in10.0 miCalmClear
8:35 AM46.4 °F30.2 °F53 %30.32 in10.0 miCalmClear
8:55 AM48.2 °F32.0 °F54 %30.32 in10.0 miCalmClear
9:15 AM48.2 °F32.0 °F54 %30.33 in10.0 miCalmClear
9:35 AM50.0 °F30.2 °F47 %30.33 in10.0 miCalmClear
9:55 AM50.0 °F30.2 °F47 %30.33 in10.0 miCalmClear
10:15 AM51.8 °F30.2 °F44 %30.33 in10.0 miCalmClear
10:35 AM51.8 °F30.2 °F44 %30.33 in10.0 miCalmClear
10:55 AM51.8 °F30.2 °F44 %30.32 in10.0 miCalmClear
11:15 AM51.8 °F30.2 °F44 %30.31 in10.0 miCalmClear
11:35 AM51.8 °F30.2 °F44 %30.31 in7.0 miCalmClear
11:55 AM51.8 °F30.2 °F44 %30.30 in10.0 miCalmClear
12:15 PM53.6 °F30.2 °F41 %30.28 in10.0 miCalmClear
12:35 PM53.6 °F30.2 °F41 %30.28 in10.0 miCalmClear
12:55 PM55.4 °F32.0 °F41 %30.26 in10.0 miCalmClear
1:15 PM55.4 °F32.0 °F41 %30.24 in10.0 miCalmClear
1:35 PM55.4 °F30.2 °F38 %30.24 in10.0 miCalmClear
1:55 PM57.2 °F30.2 °F36 %30.23 in10.0 miCalmClear
2:15 PM57.2 °F28.4 °F33 %30.24 in10.0 miCalmClear
2:35 PM59.0 °F30.2 °F34 %30.24 in10.0 miSSW (200°)3.5 mphClear
2:55 PM57.2 °F30.2 °F36 %30.25 in10.0 miCalmClear
3:15 PM59.0 °F28.4 °F31 %30.24 in10.0 miSouth (180°)3.5 mphClear
3:35 PM57.2 °F28.4 °F33 %30.23 in10.0 miCalmClear
3:55 PM57.2 °F30.2 °F36 %30.23 in10.0 miCalmClear
4:15 PM55.4 °F32.0 °F41 %30.23 in10.0 miCalmClear
4:35 PM55.4 °F33.8 °F44 %30.25 in10.0 miCalmClear
4:55 PM51.8 °F35.6 °F54 %30.24 in10.0 miCalmClear
5:15 PM51.8 °F35.6 °F54 %30.25 in10.0 miCalmClear
5:35 PM50.0 °F35.6 °F58 %30.26 in10.0 miCalmClear
5:55 PM48.2 °F35.6 °F62 %30.27 in10.0 miCalmClear
6:15 PM50.0 °F37.4 °F62 %30.28 in10.0 miCalmClear
6:35 PM50.0 °F37.4 °F62 %30.28 in10.0 miCalmClear
6:55 PM50.0 °F37.4 °F62 %30.28 in10.0 miCalmClear
7:15 PM48.2 °F37.4 °F66 %30.28 in10.0 miCalmClear
7:35 PM46.4 °F39.2 °F76 %30.28 in10.0 miCalmClear
7:55 PM48.2 °F39.2 °F71 %30.27 in10.0 miCalmClear
8:35 PM48.2 °F39.2 °F71 %30.26 in10.0 miCalmScattered Clouds
8:55 PM48.2 °F37.4 °F66 %30.26 in10.0 miCalmClear
9:15 PM46.4 °F41.0 °F81 %30.26 in10.0 miCalmClear
9:35 PM46.4 °F41.0 °F81 %30.27 in10.0 miCalmClear
9:55 PM48.2 °F39.2 °F71 %30.27 in10.0 miCalmScattered Clouds
10:15 PM46.4 °F41.0 °F81 %30.27 in10.0 miCalmScattered Clouds
10:35 PM46.4 °F39.2 °F76 %30.28 in10.0 miCalmScattered Clouds
10:55 PM46.4 °F39.2 °F76 %30.28 in10.0 miCalmScattered Clouds
11:15 PM44.6 °F41.0 °F87 %30.27 in10.0 miCalmScattered Clouds
11:35 PM44.6 °F41.0 °F87 %30.26 in10.0 miCalmClear
11:55 PM42.8 °F39.2 °F87 %30.27 in10.0 miCalmClear
Hourly data recorded from KMDQ, located miles away from Fayetteville, Tennessee







STORIES FROM OUR PARTNERS